Location: Anciles
(42.5833°N, 0.5167°E)
Time: 18:24:38
(UTC+00:00)

Cosmos 2237 Rocket - Pass Details

Date: 10 December 2019
Orbit: 836 x 849 km, 71.0° (Epoch: 18 January)

Event Time Altitude Azimuth Distance (km) Brightness Sun altitude
Rises 17:29:11 0° 206° (SSW) 3,397 6.1 -11.5°
Reaches altitude 10° 17:31:38 10° 207° (SSW) 2,466 5.3 -12.0°
Maximum altitude 17:37:19 81° 295° (WNW) 864 2.3 -12.9°
Drops below altitude 10° 17:43:01 10° 23° (NNE) 2,479 4.3 -13.9°
Enters shadow 17:43:46 - 23° (NNE) 2,760 4.5 -14.1°
